TimeMST,TemperatureF,Dew PointF,Humidity,Sea Level PressureIn,VisibilityMPH,Wind Direction,Wind SpeedMPH,Gust SpeedMPH,PrecipitationIn,Events,Conditions,WindDirDegrees,DateUTC
12:53 AM,28.9,23.0,78,29.84,10.0,WNW,20.7,-,N/A,,Clear,290,2013-02-18 07:53:00
1:53 AM,28.9,23.0,78,29.86,10.0,WNW,20.7,-,N/A,,Clear,290,2013-02-18 08:53:00
2:53 AM,28.0,21.9,78,29.87,10.0,WNW,18.4,-,N/A,,Clear,300,2013-02-18 09:53:00
3:53 AM,30.0,21.9,72,29.89,10.0,WNW,19.6,27.6,N/A,,Partly Cloudy,300,2013-02-18 10:53:00
4:53 AM,28.9,19.0,67,29.94,10.0,NW,20.7,27.6,N/A,,Clear,310,2013-02-18 11:53:00
5:53 AM,28.0,19.9,72,29.99,10.0,NNW,9.2,21.9,N/A,,Overcast,340,2013-02-18 12:53:00
7:53 AM,28.0,19.0,69,30.07,10.0,NNW,10.4,-,N/A,,Partly Cloudy,330,2013-02-18 14:53:00
8:53 AM,30.0,19.0,64,30.08,10.0,NW,17.3,24.2,N/A,,Clear,320,2013-02-18 15:53:00
9:53 AM,30.9,18.0,59,30.09,10.0,NW,21.9,29.9,N/A,,Overcast,320,2013-02-18 16:53:00
10:53 AM,33.1,17.1,52,30.09,10.0,NW,13.8,24.2,N/A,,Mostly Cloudy,320,2013-02-18 17:53:00
11:53 AM,34.0,16.0,48,30.09,10.0,NW,9.2,18.4,N/A,,Overcast,320,2013-02-18 18:53:00
12:53 PM,36.0,15.1,43,30.06,10.0,NW,13.8,24.2,N/A,,Overcast,320,2013-02-18 19:53:00
1:53 PM,37.9,14.0,38,30.05,10.0,NW,21.9,32.2,N/A,,Mostly Cloudy,310,2013-02-18 20:53:00
2:53 PM,33.1,23.0,66,30.09,10.0,North,4.6,-,N/A,,Overcast,10,2013-02-18 21:53:00
3:53 PM,28.9,21.9,75,30.13,10.0,NE,13.8,-,0.00,,Overcast,40,2013-02-18 22:53:00
4:53 PM,27.0,21.9,81,30.16,10.0,NE,9.2,-,N/A,,Mostly Cloudy,40,2013-02-18 23:53:00
5:53 PM,25.0,21.0,85,30.19,10.0,Calm,Calm,-,N/A,,Partly Cloudy,0,2013-02-19 00:53:00
6:53 PM,26.1,19.9,78,30.20,10.0,Calm,Calm,-,N/A,,Mostly Cloudy,0,2013-02-19 01:53:00
7:53 PM,23.0,18.0,81,30.22,10.0,NNE,5.8,-,N/A,,Clear,30,2013-02-19 02:53:00
8:53 PM,19.9,15.1,81,30.24,10.0,NE,3.5,-,N/A,,Clear,50,2013-02-19 03:53:00
9:53 PM,19.0,14.0,81,30.26,10.0,NNE,3.5,-,N/A,,Clear,20,2013-02-19 04:53:00
10:53 PM,16.0,12.0,84,30.27,10.0,Calm,Calm,-,N/A,,Clear,0,2013-02-19 05:53:00
11:53 PM,14.0,10.9,88,30.28,10.0,Calm,Calm,-,N/A,,Clear,0,2013-02-19 06:53:00